Weather in Banja Luka

Bosnia and Herzegovina     44°47′26″N   17°12′20″E
temp.,
°C
wind,
m/s
gust,
m/s
humid.,
%
clouds,
%
prec.,
mm/h
press.,
hPa
HPBL,
m
20 may, fri
fri2023:00+11ssw22715 0.0 102719
02:00+10ssw22685 0.0 102624
05:00+9s33595 0.0 102631
08:00+16ssw22517 0.0 1026121
11:00+25nw0130100 0.0 1024712
14:00+27n2224100 0.0 10231320
17:00+27nne123096 0.0 1021997
20:00+19s22574 0.0 102112
21 may, sat
sat2123:00+16ssw32565 0.0 102127
02:00+14ssw33607 0.0 102033
05:00+13ssw335850 0.0 101931
08:00+19ssw23495 0.0 1018127
11:00+25ne23385 0.0 1019662
14:00+26ene55475 0.0 10181456
17:00+26ene565688 0.0 10161412
20:00+20ene397878 0.0 1017327
22 may, sun
sun2223:00+15ene2294100 1.1 101946
02:00+14se1195100 2.7 101819
05:00+12ssw1194100 0.0 101710
08:00+16nne01855 0.0 1017237
11:00+22ene23565 0.0 10161026
14:00+24ne43514 0.0 10141314
17:00+24ne33553 0.0 10121112
20:00+19e2280100 0.0 101217
23 may, mon
mon2323:00+17se228597 0.0 101224
02:00+15sse1193100 0.4 101211
05:00+14ene2297100 0.4 101240
08:00+14ene129997 1.0 1013133
11:00+19ne327789 0.0 1012670
14:00+23ne335976 0.0 10101113
17:00+23ne436230 0.0 1009820
20:00+17nne1194100 2.6 100914
24 may, tue
tue2423:00+16sse119597 1.1 100915
02:00+15s21955 1.1 100921
05:00+14ssw11946 0.0 100920
08:00+19ssw128312 0.0 1010182
11:00+26n135152 0.0 10101080
14:00+28nne244711 0.0 10091273
17:00+28nne23476 0.0 10081118
20:00+22se11786 0.1 100912